Location: Unspecified
(0.0000°N, 0.0000°E)
Time: 04:26:08
(UTC+00:00)

Falcon 9 debris - Visible Passes

Search period start: 27 June 2019 00:00
Search period end: 07 July 2019 00:00
Orbit: 432 x 439 km, 53.0° (Epoch: 25 June)

Date Brightness Start Highest point End Pass type
(mag) Time Alt. Az. Time Alt. Az. Time Alt. Az.
27 Jun 4.0 18:32:25 10° NW 18:35:46 47° SW 18:39:07 10° SSE visible
29 Jun 3.8 05:29:14 10° SSW 05:32:37 54° SE 05:35:58 10° NE visible
30 Jun 5.0 04:48:14 14° S 04:50:27 27° SE 04:53:24 10° ENE visible
01 Jul 5.8 04:08:22 14° ESE 04:08:22 14° ESE 04:10:15 10° E visible
02 Jul 4.0 05:01:49 26° W 05:02:57 34° NW 05:06:06 10° N visible
03 Jul 4.2 04:21:52 40° NNE 04:21:52 40° NNE 04:24:12 10° NNE visible
04 Jul 6.6 03:41:51 11° NE 03:41:51 11° NE 03:41:59 10° NE visible
